Weather History for KEUG - September, 2013

Change the Weather History Date:

Monday, September 2, 2013

  Actual Average Record
Temperature  
Mean Temperature 71 °F 65 °F  
Max Temperature 80 °F 80 °F 103 °F (1988)
Min Temperature 62 °F 50 °F 38 °F (1999)
Degree Days  
Heating Degree Days 0 2  
Month to date heating degree days 0 4  
Since 1 July heating degree days 18 71  
Cooling Degree Days 6 2  
Month to date cooling degree days 11 4  
Year to date cooling degree days 359 212  
Growing Degree Days 21 (Base 50)    
Moisture  
Dew Point 55 °F    
Average Humidity 59    
Maximum Humidity 78    
Minimum Humidity 39    
Precipitation  
Precipitation 0.00 in 0.03 in 0.72 in (1979)
Month to date precipitation 0.00 0.06  
Year to date precipitation 9.92 26.07  
Snow  
Snow 0.00 in - - ()
Month to date snowfall 0.0  
Since 1 July snowfall 0.0  
Since 1 September snowfall 0.0  
Snow Depth 0.00 in    
Sea Level Pressure  
Sea Level Pressure 29.91 in    
Wind  
Wind Speed 7 mph (WSW)    
Max Wind Speed 16 mph    
Max Gust Speed 24 mph    
Visibility 10 miles    
Events      
T = Trace of Precipitation, MM = Missing Value Source: NWS Daily Summary

Daily Weather History Graph

Daily Weather History Graph

Search for Another Location

Airport or City:

Trip Planner

Search our weather history database for the weather conditions in past years. The results will help you decide how hot, cold, wet, or windy it might be!

Date:

Astronomy

Sep. 02, 2013 Rise Set
Actual Time 6:37 AM PDT 7:46 PM PDT
Civil Twilight 6:07 AM PDT 8:16 PM PDT
Nautical Twilight 5:32 AM PDT 8:51 PM PDT
Astronomical Twilight 4:54 AM PDT 9:28 PM PDT
Moon 3:56 AM PDT (9/2) 6:05 PM PDT (9/2)
Length of Visible Light 14h 08m
Length of Day
13h 08m
Waning Crescent, 7% of the Moon is Illuminated
Sep 2
Waning Crescent
Sep 5
New
Sep 12
First Quarter
Sep 19
Full
Sep 26
Last Quarter

Hourly Weather History & Observations

Time (PDT) Temp. Dew Point Humidity Pressure Visibility Wind Dir Wind Speed Gust Speed Precip Events Conditions
12:54 AM 66.9 °F 57.0 °F 70% 29.90 in 10.0 mi SSE 4.6 mph - N/A   Overcast
1:01 AM 66.2 °F 57.2 °F 73% 29.90 in 10.0 mi SSE 4.6 mph - N/A   Overcast
1:54 AM 66.9 °F 57.9 °F 73% 29.90 in 10.0 mi South 4.6 mph - N/A   Overcast
2:54 AM 66.0 °F 57.9 °F 75% 29.89 in 10.0 mi SSE 3.5 mph - N/A   Overcast
3:54 AM 64.9 °F 55.9 °F 73% 29.89 in 10.0 mi SE 5.8 mph - N/A   Overcast
4:54 AM 64.9 °F 55.0 °F 70% 29.88 in 10.0 mi SSE 5.8 mph - N/A   Overcast
5:54 AM 64.0 °F 55.9 °F 75% 29.88 in 10.0 mi Calm Calm - N/A   Overcast
6:54 AM 63.0 °F 55.0 °F 75% 29.88 in 10.0 mi SSW 3.5 mph - N/A   Mostly Cloudy
7:54 AM 64.9 °F 55.0 °F 70% 29.90 in 10.0 mi South 5.8 mph - N/A   Mostly Cloudy
8:54 AM 66.9 °F 59.0 °F 76% 29.92 in 10.0 mi West 6.9 mph - N/A   Mostly Cloudy
9:54 AM 69.1 °F 57.0 °F 65% 29.93 in 10.0 mi West 8.1 mph - N/A   Mostly Cloudy
10:54 AM 70.0 °F 54.0 °F 57% 29.93 in 10.0 mi SW 11.5 mph - N/A   Overcast
11:54 AM 73.0 °F 53.1 °F 49% 29.93 in 10.0 mi SW 6.9 mph - N/A   Mostly Cloudy
12:54 PM 73.9 °F 54.0 °F 50% 29.92 in 10.0 mi SW 5.8 mph - N/A   Mostly Cloudy
1:54 PM 75.0 °F 54.0 °F 48% 29.91 in 10.0 mi NW 8.1 mph - N/A   Overcast
2:54 PM 79.0 °F 52.0 °F 39% 29.90 in 10.0 mi WSW 9.2 mph - N/A   Mostly Cloudy
3:54 PM 79.0 °F 54.0 °F 42% 29.90 in 10.0 mi WNW 9.2 mph - N/A   Mostly Cloudy
4:54 PM 77.0 °F 53.1 °F 43% 29.89 in 10.0 mi North 9.2 mph - N/A   Mostly Cloudy
5:54 PM 75.9 °F 55.0 °F 48% 29.89 in 10.0 mi WNW 13.8 mph - N/A   Mostly Cloudy
6:54 PM 73.0 °F 53.1 °F 49% 29.90 in 10.0 mi West 9.2 mph - N/A   Mostly Cloudy
7:54 PM 71.1 °F 52.0 °F 51% 29.91 in 10.0 mi WNW 11.5 mph - N/A   Mostly Cloudy
8:54 PM 70.0 °F 52.0 °F 53% 29.93 in 10.0 mi NW 5.8 mph - N/A   Overcast
9:54 PM 66.0 °F 52.0 °F 60% 29.95 in 10.0 mi WNW 5.8 mph - N/A   Mostly Cloudy
10:54 PM 66.9 °F 52.0 °F 59% 29.95 in 10.0 mi WNW 3.5 mph - N/A   Overcast
11:54 PM 66.0 °F 52.0 °F 60% 29.95 in 10.0 mi West 4.6 mph - N/A   Overcast